Theta_e
326 319 312 305 296 293 289 293 296 297 299 302 304 306 305 306 307 302 321 335 339 341 346 345 346 349 348 345 343 341 338 336 334 330 328 328 328 327 327 327 326 326 327 328 328 328 328 329 330
321 314 305 299 291 286 288 292 294 298 303 305 306 306 303 304 316 316 323 332 341 344 345 343 344 346 346 343 340 337 335 331 329 327 326 326 325 325 325 325 325 326 327 327 327 327 327 327 327
318 313 299 293 288 287 289 293 297 301 305 305 303 306 306 306 314 319 326 333 339 340 341 341 342 345 342 339 337 334 330 327 325 324 324 324 323 323 323 324 324 324 324 325 326 326 326 326 325
310 303 298 289 288 292 293 294 297 300 305 307 306 304 309 313 315 324 329 336 336 337 339 340 342 341 338 335 333 330 326 324 323 322 322 322 322 321 321 322 322 322 322 324 324 325 325 324 324
307 299 291 286 287 292 294 297 297 299 302 303 305 302 306 313 324 329 330 333 332 332 336 339 339 339 335 332 329 326 323 321 321 320 320 320 319 318 319 320 320 320 322 323 323 322 322 321 321
298 296 287 287 289 293 293 297 295 296 301 304 303 302 304 313 323 327 330 331 332 331 333 334 331 333 333 330 326 322 320 319 318 318 317 316 316 317 318 318 318 320 321 321 321 321 320 320 321
298 292 288 287 290 292 296 296 294 295 298 300 303 300 304 312 320 326 327 331 331 331 332 331 329 327 326 325 324 321 318 317 316 314 314 315 316 317 317 317 317 319 319 319 319 319 320 320 320
300 295 289 287 288 292 297 297 298 298 298 302 303 299 301 311 321 324 327 328 328 329 328 325 322 319 315 314 319 319 319 315 312 311 314 316 317 318 317 318 315 318 319 319 319 320 320 320 320
304 293 289 289 291 292 296 297 300 301 298 299 304 304 309 318 321 322 323 323 324 326 325 323 320 317 313 310 311 314 315 314 315 314 316 313 311 312 312 315 317 317 318 319 320 320 319 319 318
297 291 292 294 295 295 298 298 299 297 297 298 301 308 314 317 318 319 318 319 319 320 319 320 318 315 312 312 306 307 308 307 308 310 311 312 311 311 312 311 315 315 316 318 319 319 320 318 313
297 292 295 297 300 299 297 297 300 295 294 298 299 304 309 312 313 315 316 318 318 319 318 317 315 311 309 307 306 306 306 306 307 309 310 310 311 309 308 307 307 308 310 308 311 314 316 317 316
295 299 297 300 299 298 297 298 297 297 297 301 301 306 307 307 309 310 312 314 317 317 317 316 312 310 308 306 306 306 306 306 307 308 310 308 307 307 307 306 306 307 307 308 313 316 317 314 315
296 297 299 300 298 298 299 296 296 297 300 301 304 303 304 304 305 307 310 311 314 315 316 314 310 309 308 306 305 305 305 307 307 309 310 309 307 307 307 307 307 306 307 308 314 316 312 312 314
300 299 299 298 299 299 298 297 298 297 299 301 303 301 301 302 302 303 305 307 313 314 314 312 310 309 308 305 305 305 306 306 308 308 309 310 308 307 306 306 306 307 308 314 316 313 311 315 316
301 296 297 298 298 299 300 296 295 299 301 303 303 302 301 302 302 301 303 303 306 313 313 311 309 308 307 306 305 306 307 308 308 308 309 310 309 307 306 305 306 308 314 315 315 313 315 312 312
296 296 290 297 299 300 298 293 299 301 301 299 301 301 302 301 302 303 304 304 304 311 311 311 311 306 306 305 305 307 308 307 307 308 308 308 309 308 306 305 307 314 316 316 314 314 312 312 309
293 288 289 294 299 298 296 294 299 300 299 298 299 299 300 300 301 303 304 305 305 309 308 306 306 305 305 306 307 307 308 308 308 307 306 307 308 308 306 306 311 315 314 312 312 311 314 309 310
288 288 290 292 297 297 295 293 295 298 297 296 296 297 297 298 299 303 304 306 307 306 306 305 305 305 306 306 306 306 307 307 306 305 305 306 307 308 307 313 314 314 314 313 311 310 312 310 309
292 291 290 294 297 295 295 292 293 296 295 294 294 295 296 296 300 303 304 304 305 304 304 304 305 305 305 304 303 304 304 305 304 305 306 306 307 308 309 314 314 314 313 313 312 309 310 308 308
293 291 290 294 296 293 293 289 292 294 293 293 293 293 295 296 299 301 302 303 303 303 304 305 305 305 306 305 305 305 305 305 305 305 305 307 307 308 310 313 313 313 313 313 310 311 311 313 308
291 289 288 290 292 293 292 287 289 292 293 293 292 294 294 296 297 300 301 302 302 302 303 305 305 306 306 307 306 306 307 306 305 305 304 305 307 308 310 312 312 313 314 313 313 310 308 306 307
288 292 293 291 288 281 291 279 283 289 289 289 290 291 292 294 298 300 301 302 302 301 303 304 305 305 306 306 305 304 303 302 304 304 305 305 307 308 310 312 310 314 313 311 313 312 308 307 303
289 294 292 291 287 284 285 281 285 289 286 286 288 289 290 293 294 295 297 298 299 300 300 301 302 303 304 304 304 304 305 304 305 304 305 305 306 308 310 314 313 313 314 313 310 311 309 309 305
295 293 293 291 287 278 284 283 281 283 286 286 287 288 289 290 291 292 294 295 295 294 295 298 300 299 301 303 303 306 305 306 305 307 307 308 307 308 310 313 313 314 314 313 313 313 309 313 306
293 290 281 280 276 278 285 285 280 285 287 287 286 286 287 288 287 288 289 289 291 291 292 294 294 294 296 297 300 305 305 306 306 306 307 308 310 311 312 313 313 313 313 313 314 313 310 314 307
289 289 282 275 277 280 284 281 281 286 288 288 287 286 286 285 286 287 287 288 288 289 289 290 291 291 293 295 297 300 304 305 306 307 307 307 308 310 312 312 313 314 314 313 313 313 313 312 310
288 285 290 281 277 279 281 281 284 286 285 285 284 284 283 284 285 285 286 286 287 287 287 288 288 289 290 291 292 292 295 297 299 302 304 306 308 309 310 311 311 312 314 313 313 312 312 312 311
289 292 285 283 274 275 279 279 281 282 282 283 282 281 282 283 283 284 285 286 286 287 287 287 288 288 289 289 289 290 290 292 293 295 295 297 300 303 306 309 310 310 312 313 312 311 311 311 311
287 286 287 287 283 279 276 277 283 284 283 281 282 283 282 282 283 283 284 285 285 286 286 285 286 287 287 288 288 288 289 289 290 290 291 293 295 297 299 301 305 307 308 309 311 311 311 310 310
289 288 288 282 280 280 280 277 285 284 283 283 282 283 282 283 283 283 283 283 283 284 284 283 284 284 285 286 286 286 287 288 288 288 289 290 290 292 294 296 298 299 302 305 304 305 308 310 310
Wind_Speed
7 7 2 4 4 4 4 6 3 3 4 2 2 8 8 2 3 4 4 11 15 12 10 10 11 12 15 14 13 13 11 10 8 7 7 8 8 8 8 9 10 10 10 10 9 9 9 9 10
4 6 4 1 3 1 5 4 4 2 1 3 4 4 5 4 4 5 3 8 14 12 9 6 14 15 14 13 12 13 10 9 8 7 7 8 8 9 9 10 10 10 10 10 10 9 9 9 9
5 1 3 3 3 4 3 3 5 2 6 4 2 3 4 2 5 6 4 10 12 11 8 8 14 14 13 13 13 12 10 9 8 8 8 8 9 10 10 10 10 10 11 10 10 10 10 10 10
2 4 4 3 6 7 4 2 3 3 5 4 1 6 5 1 1 6 5 13 14 10 9 11 14 14 13 12 12 11 10 8 8 8 8 8 9 9 10 10 10 10 10 10 11 11 11 11 12
2 2 1 2 5 5 2 4 3 2 4 2 2 3 5 2 8 7 7 12 13 7 8 8 11 12 10 10 11 10 9 8 7 8 8 8 9 9 10 10 10 10 11 12 12 12 12 12 13
3 2 2 4 6 3 2 5 2 2 2 2 2 3 2 3 6 6 9 11 11 9 8 7 12 10 9 9 10 9 8 7 7 8 8 8 8 8 8 8 9 9 12 13 13 13 13 14 15
2 2 4 1 4 4 2 4 4 1 2 1 2 4 3 3 5 5 8 12 10 8 9 7 8 7 10 9 8 8 7 7 6 6 6 7 8 6 6 7 6 10 13 13 13 13 14 15 15
2 2 3 4 1 2 1 2 1 2 1 2 0 3 4 4 7 5 7 9 8 7 8 8 7 6 6 5 8 8 6 4 3 3 4 6 8 8 5 3 3 11 11 12 12 13 14 15 16
2 3 3 4 4 2 4 3 2 1 2 2 2 4 5 7 6 5 5 6 6 7 7 8 8 7 6 5 5 5 4 3 1 2 2 5 4 4 5 4 9 11 11 12 13 12 14 14 12
2 1 4 3 5 4 2 6 4 2 1 1 3 5 6 6 5 6 5 6 5 6 6 7 7 7 6 4 5 3 3 1 1 3 4 3 4 3 4 4 7 9 12 8 11 13 11 8 4
5 5 2 3 3 5 3 5 6 1 1 2 1 7 6 5 6 7 7 7 9 8 6 7 7 7 7 5 3 1 1 1 3 3 2 3 3 3 2 2 3 4 5 4 5 5 4 6 5
3 4 5 4 2 3 3 6 5 2 5 3 2 8 7 7 8 9 8 8 7 8 8 8 7 7 6 4 3 2 2 2 2 3 3 3 3 4 4 2 4 3 3 5 4 3 5 6 6
6 7 7 1 2 1 1 3 4 8 10 5 5 8 8 7 7 7 7 7 7 8 7 7 8 7 5 5 3 2 3 2 1 3 3 3 3 4 3 3 3 4 3 4 4 3 4 4 4
6 11 12 5 2 2 1 1 3 5 1 3 2 3 4 3 11 13 9 3 7 8 8 7 8 7 7 4 3 3 2 2 3 2 2 3 3 3 3 4 4 4 3 3 3 3 4 3 4
3 2 6 5 4 2 1 1 5 8 7 10 8 15 15 14 17 11 8 8 6 6 9 9 8 8 7 6 3 3 2 3 3 2 4 4 4 4 4 3 3 3 3 4 4 4 3 4 4
6 1 3 4 8 1 1 3 3 3 13 14 16 15 15 16 14 13 11 9 7 6 9 8 8 7 7 5 4 3 3 3 3 3 4 5 4 4 4 3 3 3 3 3 3 3 3 3 4
3 4 6 0 2 3 3 3 5 10 16 15 15 15 15 15 19 15 14 11 7 8 11 10 8 7 7 6 4 3 4 3 3 4 3 5 4 4 3 2 2 4 3 3 3 2 2 2 3
7 5 6 5 4 2 5 2 8 11 18 14 14 14 15 16 16 14 14 14 12 11 10 10 7 8 7 4 3 3 3 3 3 3 3 4 3 5 4 3 3 3 2 3 2 3 3 2 3
1 5 6 3 3 4 3 8 8 9 16 15 14 14 14 13 11 14 14 13 12 11 11 9 8 6 5 3 2 2 2 2 2 3 4 4 3 5 5 3 3 3 2 2 3 3 4 3 4
2 2 3 3 3 4 7 8 8 11 11 12 12 13 12 11 11 13 14 15 14 12 11 11 9 7 5 3 1 1 1 2 1 2 3 3 3 4 4 3 2 3 2 3 3 3 3 2 5
2 2 1 4 2 2 10 3 4 7 11 13 13 9 11 9 10 12 14 13 13 11 10 9 8 7 6 6 3 3 2 3 3 3 2 3 3 3 4 3 3 4 2 2 2 3 5 3 3
3 3 3 2 2 3 3 4 3 7 10 12 10 10 11 12 9 10 12 14 12 8 8 8 7 7 7 8 5 6 4 3 2 2 3 3 4 4 4 4 3 4 4 4 4 3 2 3 4
5 2 6 3 2 3 3 5 4 7 7 9 9 10 9 10 13 14 14 14 13 13 9 7 8 9 8 8 7 5 7 3 3 2 5 4 4 4 3 3 3 4 3 4 4 4 4 2 1
6 5 4 2 3 2 5 6 3 1 2 5 7 9 8 9 12 12 12 13 11 12 12 11 12 13 12 9 8 8 7 6 4 6 5 4 2 3 5 4 3 3 4 3 3 3 4 4 1
3 5 2 3 3 5 5 4 1 5 7 8 8 7 6 7 9 10 11 10 11 13 13 11 12 13 12 12 11 8 7 7 6 6 5 6 5 4 6 6 4 3 3 4 3 4 4 3 2
6 4 6 8 5 4 3 5 4 6 9 10 9 6 6 7 7 10 10 9 10 12 12 12 12 12 13 13 13 13 11 5 5 5 4 5 4 4 6 7 7 6 5 4 4 3 3 3 2
6 5 3 6 3 3 4 3 1 7 8 9 8 7 6 6 7 9 9 9 10 11 12 12 12 13 13 13 11 13 13 13 12 13 11 9 8 7 8 7 7 8 6 5 5 3 4 4 3
3 5 3 3 4 4 3 4 4 10 10 7 6 6 6 6 7 7 8 10 9 10 9 12 12 12 12 12 12 10 12 13 13 11 13 13 11 12 12 10 8 9 9 7 5 4 5 5 3
2 2 2 3 4 5 4 4 1 9 11 10 7 5 6 6 6 6 8 8 9 9 10 11 12 12 13 12 12 12 12 13 12 12 13 13 13 14 13 13 12 11 11 11 10 6 5 5 5
1 3 4 5 4 1 2 2 5 9 10 10 9 7 5 6 6 6 6 7 8 9 10 11 11 12 12 11 11 12 12 12 12 12 12 13 13 13 13 13 13 13 13 12 14 13 12 9 7
Wind_Direction
323 319 318 23 57 75 252 267 177 75 39 1 55 85 125 43 44 162 235 105 120 135 144 157 137 122 122 122 122 105 106 104 97 87 74 65 50 39 31 27 21 12 6 2 357 351 344 339 330
328 322 37 41 96 118 265 232 71 67 133 24 42 37 70 101 80 106 82 123 132 131 136 125 114 119 122 127 120 106 105 101 93 78 60 54 46 32 24 19 14 8 2 355 347 340 332 323 318
320 204 73 111 187 183 218 31 133 102 51 4 54 67 72 23 119 140 246 119 116 124 122 125 123 124 124 112 100 105 101 89 73 62 54 44 35 27 17 11 8 5 357 348 342 334 326 324 320
353 3 358 103 241 269 135 118 88 85 10 35 27 75 66 353 61 153 158 107 99 98 117 118 120 114 100 106 107 106 98 85 75 62 48 33 28 20 11 7 3 358 354 351 346 342 333 325 319
58 47 313 244 257 267 147 113 61 70 167 189 47 143 85 38 108 121 112 109 107 111 114 125 100 89 106 114 112 109 104 92 73 55 44 30 15 12 7 358 354 352 351 347 342 339 335 328 321
358 122 63 232 256 286 66 103 62 19 16 132 65 78 90 151 113 157 117 116 119 121 102 90 93 108 115 117 115 110 103 88 65 52 37 20 3 359 0 3 357 348 343 338 336 333 328 325 323
199 97 228 264 271 221 119 59 103 342 73 60 293 79 136 83 148 162 115 123 123 126 123 111 106 114 107 108 110 107 98 79 63 47 27 5 345 336 341 359 356 338 333 332 330 330 333 332 326
126 85 276 236 236 3 148 71 97 57 356 292 50 121 180 198 143 146 119 124 126 129 131 127 129 130 120 127 116 109 105 96 76 47 12 352 345 335 347 332 325 341 342 335 338 338 334 330 324
38 21 260 271 187 162 187 108 322 153 51 350 144 102 136 135 111 107 98 97 114 130 147 141 150 148 140 142 133 124 146 148 12 17 8 6 5 10 356 11 329 328 324 319 336 334 343 345 330
131 118 257 19 350 32 40 86 170 88 58 259 97 52 117 117 130 145 156 147 142 153 143 148 156 143 155 145 143 170 186 162 181 67 51 19 355 356 30 9 358 338 325 321 333 347 338 337 319
205 188 259 17 49 16 18 35 333 44 180 220 241 173 173 165 160 185 189 184 182 173 152 160 144 135 136 129 138 165 96 51 40 84 69 22 6 354 18 354 341 341 345 350 331 333 343 342 337
273 276 283 292 76 44 33 319 341 258 245 343 101 156 171 165 191 201 200 202 178 168 172 155 139 131 129 131 129 149 113 60 62 13 70 36 16 6 9 359 332 341 353 351 339 343 16 1 335
231 276 290 190 69 73 27 281 252 271 279 320 101 155 162 180 217 233 220 212 167 162 168 154 134 138 130 125 108 129 92 96 47 65 59 58 28 4 356 356 349 350 357 337 345 17 6 327 346
217 210 260 267 221 149 179 251 23 319 121 151 88 130 133 43 33 36 4 226 147 146 154 144 130 131 129 107 125 99 97 78 54 76 54 59 43 19 2 352 359 4 3 332 355 19 348 328 360
76 336 275 252 199 80 193 297 254 249 275 20 357 52 58 41 39 31 358 11 340 151 136 141 127 123 116 116 101 81 57 51 59 32 40 52 44 22 6 349 11 350 350 356 0 1 340 353 356
129 269 250 331 130 146 124 77 346 137 74 57 53 52 46 37 35 20 2 351 344 127 116 114 110 112 106 112 91 72 45 48 45 24 51 36 30 28 1 22 7 355 10 11 4 347 338 349 16
171 181 220 175 166 119 82 137 17 44 73 57 45 42 38 27 28 15 358 349 354 84 98 91 90 94 92 81 90 83 64 53 47 49 39 15 25 7 12 4 19 2 11 23 353 319 327 337 352
183 202 171 161 201 96 138 266 53 47 69 57 44 35 36 28 15 3 4 18 48 67 75 82 77 79 76 72 55 48 45 38 39 42 29 29 9 4 10 37 31 8 21 350 6 329 313 305 314
271 183 119 141 169 127 198 68 51 56 58 52 43 35 34 24 9 19 20 29 46 44 62 68 76 54 50 28 14 26 51 39 21 27 31 31 24 11 358 46 42 9 329 354 32 322 331 318 338
325 110 96 77 146 98 80 85 72 61 68 63 51 39 34 25 27 33 31 36 37 44 43 48 51 45 39 49 359 117 115 75 84 358 12 20 28 28 5 48 12 331 353 36 17 354 327 326 2
264 141 129 131 202 106 117 144 126 74 77 67 51 41 32 29 40 39 39 35 37 36 40 46 42 31 24 23 11 9 25 35 26 3 349 341 9 38 34 31 0 318 335 2 348 6 22 349 325
196 228 191 123 74 199 158 236 217 119 79 63 53 38 35 21 31 50 45 42 36 15 35 37 37 26 23 22 33 50 53 39 334 330 321 342 355 15 38 14 11 5 359 6 340 4 3 34 4
238 280 188 165 183 56 311 82 306 144 61 51 51 44 35 32 38 39 44 39 30 23 16 17 26 30 20 25 32 36 35 32 318 8 356 352 340 346 1 19 3 351 352 339 332 3 349 52 6
144 93 48 120 107 25 232 137 226 37 68 92 68 52 33 35 40 39 38 38 30 24 20 24 27 25 15 12 19 43 28 15 15 9 8 357 349 345 342 357 0 332 331 344 330 332 343 340 43
108 120 47 9 9 221 332 110 41 103 86 101 90 64 37 40 40 36 36 28 31 28 22 25 23 25 14 14 11 14 23 16 15 9 6 6 359 4 358 358 342 328 321 326 321 321 325 346 13
167 181 159 182 189 207 328 208 147 120 106 98 86 83 67 53 46 44 40 35 36 33 29 25 26 24 17 16 15 16 11 15 17 13 356 352 352 339 344 346 338 332 311 313 301 295 301 331 326
201 185 169 103 32 76 156 77 52 121 103 97 89 70 60 55 49 52 42 40 39 35 30 25 26 26 23 23 20 20 17 19 14 18 15 7 360 350 339 342 341 341 333 328 322 300 300 306 297
135 157 96 3 125 227 233 177 179 171 141 112 98 94 74 63 52 51 45 40 38 39 32 29 31 31 27 27 25 24 24 20 17 19 15 7 3 3 360 348 354 347 341 336 325 306 292 290 281
145 164 186 130 148 171 160 232 285 165 146 133 112 93 88 76 61 54 46 38 34 34 36 31 28 30 28 26 26 25 23 22 23 20 11 9 4 2 7 1 0 0 355 351 340 319 300 294 285
354 180 152 136 223 232 148 216 97 114 127 127 124 116 101 89 77 64 50 42 38 34 33 30 27 31 28 24 26 26 24 22 24 21 16 10 7 6 2 2 6 8 0 0 2 352 345 325 300